This is the latest recevied weather packets stored in our database for station/object W8RD. If no packets are shown the sender has not sent any weather packets the latest 10 day(s).
| Time | Temp. | Humidity | Pressure | Rain* | Wind** | Luminosity | Snow |
|---|---|---|---|---|---|---|---|
| 1777489912 | 29.44° C | 65% | 1016.4 hPa | 0 mm | - | 709 W/m² | - |
| 1777489312 | 30.56° C | 62% | 1016.7 hPa | 0 mm | - | 795 W/m² | - |
| 1777488712 | 30.56° C | 60% | 1016.9 hPa | 0 mm | - | 812 W/m² | - |
| 1777488108 | 30.56° C | 61% | 1016.9 hPa | 0 mm | - | 837 W/m² | - |
| 1777487503 | 30° C | 61% | 1017 hPa | 0 mm | - | 852 W/m² | - |
| 1777486902 | 30.56° C | 59% | 1017.2 hPa | 0 mm | - | 860 W/m² | - |
| 1777486303 | 30° C | 60% | 1017.1 hPa | 0 mm | - | 872 W/m² | - |
| 1777485702 | 30.56° C | 61% | 1017.2 hPa | 0 mm | - | 882 W/m² | - |
| 1777485099 | 30° C | 61% | 1017.3 hPa | 0 mm | - | 888 W/m² | - |
| 1777484498 | 30° C | 63% | 1017.5 hPa | 0 mm | - | 881 W/m² | - |
| 1777483897 | 30° C | 65% | 1017.4 hPa | 0 mm | - | 891 W/m² | - |
| 1777483294 | 29.44° C | 64% | 1017.5 hPa | 0 mm | - | 891 W/m² | - |
| 1777482693 | 30° C | 62% | 1017.6 hPa | 0 mm | - | 882 W/m² | - |
| 1777482093 | 29.44° C | 64% | 1017.6 hPa | 0 mm | - | 877 W/m² | - |
| 1777481493 | 29.44° C | 63% | 1018 hPa | 0 mm | - | 516 W/m² | - |
| 1777480892 | 29.44° C | 63% | 1018 hPa | 0 mm | - | 258 W/m² | - |
| 1777480292 | 29.44° C | 61% | 1018.1 hPa | 0 mm | - | 78 W/m² | - |
| 1777479691 | 28.89° C | 60% | 1018.3 hPa | 0 mm | - | 91 W/m² | - |
| 1777479090 | 28.89° C | 62% | 1018.4 hPa | 0 mm | - | 81 W/m² | - |
| 1777478490 | 28.89° C | 63% | 1018.4 hPa | 0 mm | - | 314 W/m² | - |
| 1777477888 | 28.89° C | 64% | 1018.7 hPa | 0 mm | - | 71 W/m² | - |
| 1777477286 | 28.89° C | 62% | 1019 hPa | 0 mm | - | 100 W/m² | - |
| 1777476681 | 28.33° C | 61% | 1019 hPa | 0 mm | - | 160 W/m² | - |
| 1777476080 | 28.89° C | 61% | 1018.8 hPa | 0 mm | - | 66 W/m² | - |
| 1777475478 | 28.33° C | 61% | 1018.9 hPa | 0 mm | - | 74 W/m² | - |
* Rain latest hour (hover to see other rain measurements)
** Current wind speed in m/s (hover to see current wind gust speed)